Time,TemperatureF,DewpointF,PressureIn,WindDirection,WindDirectionDegrees,WindSpeedMPH,WindSpeedGustMPH,Humidity,HourlyPrecipIn,Conditions,Clouds,dailyrainin,SoftwareType,DateUTC
2013-09-03 00:05:00,71.1,47.7,30.23,South,180,0.0,2.0,43,0.00,,,0.00,meteohub,2013-09-02 21:05:00,
2013-09-03 00:11:00,71.1,47.7,30.23,South,180,0.0,2.0,43,0.00,,,0.00,meteohub,2013-09-02 21:11:00,
2013-09-03 00:17:00,70.9,47.5,30.23,South,180,0.0,0.0,43,0.00,,,0.00,meteohub,2013-09-02 21:17:00,
2013-09-03 00:23:00,70.7,47.3,30.23,South,180,0.0,0.0,43,0.00,,,0.00,meteohub,2013-09-02 21:23:00,
2013-09-03 00:29:00,70.7,47.3,30.23,South,180,0.0,0.0,43,0.00,,,0.00,meteohub,2013-09-02 21:29:00,
2013-09-03 00:35:00,70.7,47.3,30.23,South,180,0.0,0.0,43,0.00,,,0.00,meteohub,2013-09-02 21:35:00,
2013-09-03 00:41:00,70.5,47.1,30.23,South,180,0.0,0.0,43,0.00,,,0.00,meteohub,2013-09-02 21:41:00,
2013-09-03 00:47:00,70.5,47.7,30.23,South,180,0.0,0.0,44,0.00,,,0.00,meteohub,2013-09-02 21:47:00,
2013-09-03 00:53:00,70.3,47.5,30.23,South,180,0.0,0.0,44,0.00,,,0.00,meteohub,2013-09-02 21:53:00,
2013-09-03 00:59:00,70.3,47.5,30.23,South,180,0.0,0.0,44,0.00,,,0.00,meteohub,2013-09-02 21:59:00,
2013-09-03 01:05:00,70.3,47.5,30.23,South,180,0.0,0.0,44,0.00,,,0.00,meteohub,2013-09-02 22:05:00,
2013-09-03 01:12:00,70.2,47.5,30.23,South,180,0.0,0.0,44,0.00,,,0.00,meteohub,2013-09-02 22:12:00,
2013-09-03 01:18:00,70.2,48.0,30.23,East,90,0.0,0.0,45,0.00,,,0.00,meteohub,2013-09-02 22:18:00,
2013-09-03 01:24:00,70.0,47.8,30.23,East,90,0.0,0.0,45,0.00,,,0.00,meteohub,2013-09-02 22:24:00,
2013-09-03 01:30:00,69.8,47.7,30.23,East,90,0.0,0.0,45,0.00,,,0.00,meteohub,2013-09-02 22:30:00,
2013-09-03 01:36:00,69.8,47.7,30.23,NE,45,1.0,0.0,45,0.00,,,0.00,meteohub,2013-09-02 22:36:00,
2013-09-03 01:42:00,69.8,48.2,30.23,NE,45,0.0,1.0,46,0.00,,,0.00,meteohub,2013-09-02 22:42:00,
2013-09-03 01:48:00,69.6,48.0,30.23,NE,45,0.0,1.0,46,0.00,,,0.00,meteohub,2013-09-02 22:48:00,
2013-09-03 01:54:00,69.6,48.0,30.23,NE,45,0.0,1.0,46,0.00,,,0.00,meteohub,2013-09-02 22:54:00,
2013-09-03 02:00:00,69.6,48.0,30.23,NE,45,0.0,0.0,46,0.00,,,0.00,meteohub,2013-09-02 23:00:00,
2013-09-03 02:06:00,69.6,48.0,30.23,South,180,0.0,0.0,46,0.00,,,0.00,meteohub,2013-09-02 23:06:00,
2013-09-03 02:12:00,69.4,48.6,30.23,South,180,0.0,0.0,47,0.00,,,0.00,meteohub,2013-09-02 23:12:00,
2013-09-03 02:17:00,69.4,48.6,30.23,South,180,0.0,0.0,47,0.00,,,0.00,meteohub,2013-09-02 23:17:00,
2013-09-03 02:23:00,69.4,48.6,30.23,South,180,0.0,0.0,47,0.00,,,0.00,meteohub,2013-09-02 23:23:00,
2013-09-03 02:29:00,69.4,48.6,30.23,South,180,0.0,0.0,47,0.00,,,0.00,meteohub,2013-09-02 23:29:00,
2013-09-03 02:35:00,69.3,48.4,30.23,South,180,0.0,0.0,47,0.00,,,0.00,meteohub,2013-09-02 23:35:00,
2013-09-03 02:41:00,69.3,48.9,30.23,South,180,0.0,0.0,48,0.00,,,0.00,meteohub,2013-09-02 23:41:00,
2013-09-03 02:47:00,69.3,48.9,30.23,South,180,0.0,0.0,48,0.00,,,0.00,meteohub,2013-09-02 23:47:00,
2013-09-03 02:53:00,69.1,48.7,30.23,South,180,0.0,0.0,48,0.00,,,0.00,meteohub,2013-09-02 23:53:00,
2013-09-03 02:59:00,69.1,49.3,30.23,South,180,0.0,0.0,49,0.00,,,0.00,meteohub,2013-09-02 23:59:00,
2013-09-03 03:05:00,68.9,49.1,30.23,South,180,0.0,0.0,49,0.00,,,0.00,meteohub,2013-09-03 00:05:00,
2013-09-03 03:11:00,68.9,49.1,30.20,South,180,0.0,0.0,49,0.00,,,0.00,meteohub,2013-09-03 00:11:00,
2013-09-03 03:17:00,68.9,49.1,30.20,South,180,0.0,0.0,49,0.00,,,0.00,meteohub,2013-09-03 00:17:00,
2013-09-03 03:23:00,68.7,48.9,30.20,South,180,0.0,0.0,49,0.00,,,0.00,meteohub,2013-09-03 00:23:00,
2013-09-03 03:29:00,68.5,49.3,30.20,South,180,0.0,0.0,50,0.00,,,0.00,meteohub,2013-09-03 00:29:00,
2013-09-03 03:51:00,68.5,49.3,30.20,NE,45,0.0,-999.0,50,0.00,,,0.00,meteohub,2013-09-03 00:51:00,
2013-09-03 03:57:00,68.4,49.1,30.20,NE,45,0.0,0.0,50,0.00,,,0.00,meteohub,2013-09-03 00:57:00,
2013-09-03 04:03:00,68.4,49.6,30.20,North,0,0.0,0.0,51,0.00,,,0.00,meteohub,2013-09-03 01:03:00,
2013-09-03 04:09:00,68.4,49.6,30.20,North,0,0.0,0.0,51,0.00,,,0.00,meteohub,2013-09-03 01:09:00,
2013-09-03 04:15:00,68.4,49.6,30.20,NE,45,0.0,0.0,51,0.00,,,0.00,meteohub,2013-09-03 01:15:00,
2013-09-03 04:21:00,68.4,49.6,30.20,NE,45,0.0,0.0,51,0.00,,,0.00,meteohub,2013-09-03 01:21:00,
2013-09-03 04:27:00,68.4,49.6,30.20,NE,45,0.0,0.0,51,0.00,,,0.00,meteohub,2013-09-03 01:27:00,
2013-09-03 04:33:00,68.4,49.6,30.20,NE,45,0.0,0.0,51,0.00,,,0.00,meteohub,2013-09-03 01:33:00,
2013-09-03 04:39:00,68.4,49.6,30.20,NE,45,0.0,0.0,51,0.00,,,0.00,meteohub,2013-09-03 01:39:00,
2013-09-03 04:48:00,68.4,49.6,30.20,NE,45,0.0,2.0,51,0.00,,,0.00,meteohub,2013-09-03 01:48:00,
2013-09-03 04:54:00,68.4,49.1,30.20,NE,45,0.0,2.0,50,0.00,,,0.00,meteohub,2013-09-03 01:54:00,
2013-09-03 05:00:00,68.4,49.6,30.20,NE,45,0.0,1.0,51,0.00,,,0.00,meteohub,2013-09-03 02:00:00,
2013-09-03 05:07:00,68.4,49.6,30.20,NE,45,1.0,1.0,51,0.00,,,0.00,meteohub,2013-09-03 02:07:00,
2013-09-03 05:12:00,68.4,49.6,30.20,NE,45,0.0,1.0,51,0.00,,,0.00,meteohub,2013-09-03 02:12:00,
2013-09-03 05:18:00,68.4,49.6,30.20,NE,45,0.0,1.0,51,0.00,,,0.00,meteohub,2013-09-03 02:18:00,
2013-09-03 05:28:00,68.4,49.6,30.20,NE,45,0.0,1.0,51,0.00,,,0.00,meteohub,2013-09-03 02:28:00,
2013-09-03 05:34:00,68.4,49.6,30.20,NE,45,0.0,1.0,51,0.00,,,0.00,meteohub,2013-09-03 02:34:00,
2013-09-03 05:39:00,68.4,49.1,30.20,NE,45,0.0,0.0,50,0.00,,,0.00,meteohub,2013-09-03 02:39:00,
2013-09-03 05:45:00,68.2,49.5,30.20,NE,45,0.0,0.0,51,0.00,,,0.00,meteohub,2013-09-03 02:45:00,
2013-09-03 05:52:00,68.2,49.5,30.20,NE,45,0.0,0.0,51,0.00,,,0.00,meteohub,2013-09-03 02:52:00,
2013-09-03 05:58:00,68.2,49.5,30.20,North,-999,-999.0,0.0,51,0.00,,,0.00,meteohub,2013-09-03 02:58:00,
2013-09-03 06:04:00,68.2,49.5,30.20,NE,45,0.0,0.0,51,0.00,,,0.00,meteohub,2013-09-03 03:04:00,
2013-09-03 06:09:00,68.2,49.5,30.20,NE,45,0.0,0.0,51,0.00,,,0.00,meteohub,2013-09-03 03:09:00,
2013-09-03 06:16:00,68.2,49.5,30.20,NE,45,0.0,1.0,51,0.00,,,0.00,meteohub,2013-09-03 03:16:00,
2013-09-03 06:22:00,68.2,49.5,30.20,NE,45,0.0,1.0,51,0.00,,,0.00,meteohub,2013-09-03 03:22:00,
2013-09-03 06:27:00,68.2,49.5,30.20,NE,45,0.0,0.0,51,0.00,,,0.00,meteohub,2013-09-03 03:27:00,
2013-09-03 06:33:00,68.2,49.5,30.20,NE,45,0.0,0.0,51,0.00,,,0.00,meteohub,2013-09-03 03:33:00,
2013-09-03 06:39:00,68.0,49.3,30.20,NE,45,0.0,0.0,51,0.00,,,0.00,meteohub,2013-09-03 03:39:00,
2013-09-03 06:46:00,68.0,49.3,30.20,NE,45,0.0,0.0,51,0.00,,,0.00,meteohub,2013-09-03 03:46:00,
2013-09-03 06:52:00,68.0,49.3,30.20,NE,45,0.0,0.0,51,0.00,,,0.00,meteohub,2013-09-03 03:52:00,
2013-09-03 06:57:00,67.8,49.6,30.20,NE,45,0.0,0.0,52,0.00,,,0.00,meteohub,2013-09-03 03:57:00,
2013-09-03 07:02:00,67.8,49.6,30.20,NE,45,0.0,0.0,52,0.00,,,0.00,meteohub,2013-09-03 04:02:00,
2013-09-03 07:07:00,67.8,50.0,30.20,NE,45,0.0,0.0,53,0.00,,,0.00,meteohub,2013-09-03 04:07:00,
2013-09-03 07:14:00,67.8,50.0,30.20,NE,45,0.0,0.0,53,0.00,,,0.00,meteohub,2013-09-03 04:14:00,
2013-09-03 07:17:00,67.8,50.0,30.20,NE,45,0.0,0.0,53,0.00,,,0.00,meteohub,2013-09-03 04:17:00,
2013-09-03 07:22:00,68.0,50.7,30.20,NE,45,0.0,0.0,54,0.00,,,0.00,meteohub,2013-09-03 04:22:00,
2013-09-03 07:24:00,68.0,50.7,30.23,NE,45,0.0,0.0,54,0.00,,,0.00,meteohub,2013-09-03 04:24:00,
2013-09-03 07:31:00,68.0,50.7,30.23,NE,45,0.0,0.0,54,0.00,,,0.00,meteohub,2013-09-03 04:31:00,
2013-09-03 07:37:00,68.0,51.3,30.23,NE,45,0.0,0.0,55,0.00,,,0.00,meteohub,2013-09-03 04:37:00,
2013-09-03 07:42:00,68.2,51.4,30.23,NE,45,0.0,0.0,55,0.00,,,0.00,meteohub,2013-09-03 04:42:00,
2013-09-03 07:47:00,68.2,51.4,30.23,NE,45,0.0,0.0,55,0.00,,,0.00,meteohub,2013-09-03 04:47:00,
2013-09-03 07:54:00,68.2,50.9,30.23,NE,45,0.0,0.0,54,0.00,,,0.00,meteohub,2013-09-03 04:54:00,
2013-09-03 08:00:00,68.4,51.1,30.23,NE,45,0.0,0.0,54,0.00,,,0.00,meteohub,2013-09-03 05:00:00,
2013-09-03 08:07:00,68.5,51.3,30.23,NE,45,0.0,0.0,54,0.00,,,0.00,meteohub,2013-09-03 05:07:00,
2013-09-03 08:14:00,68.7,51.4,30.23,NE,45,0.0,0.0,54,0.00,,,0.00,meteohub,2013-09-03 05:14:00,
2013-09-03 08:20:00,68.9,51.1,30.23,NE,45,0.0,0.0,53,0.00,,,0.00,meteohub,2013-09-03 05:20:00,
2013-09-03 08:26:00,69.1,50.7,30.23,SE,135,0.0,0.0,52,0.00,,,0.00,meteohub,2013-09-03 05:26:00,
2013-09-03 08:32:00,69.3,50.4,30.23,South,180,0.0,0.0,51,0.00,,,0.00,meteohub,2013-09-03 05:32:00,
2013-09-03 08:37:00,69.4,50.0,30.23,SW,225,1.0,0.0,50,0.00,,,0.00,meteohub,2013-09-03 05:37:00,
2013-09-03 08:43:00,69.6,49.8,30.23,SW,225,0.0,1.0,49,0.00,,,0.00,meteohub,2013-09-03 05:43:00,
2013-09-03 08:49:00,70.2,49.6,30.23,SW,225,0.0,1.0,48,0.00,,,0.00,meteohub,2013-09-03 05:49:00,
2013-09-03 08:55:00,70.7,49.6,30.23,SW,225,1.0,1.0,47,0.00,,,0.00,meteohub,2013-09-03 05:55:00,
2013-09-03 09:02:00,72.1,50.7,30.23,SSW,202,0.0,1.0,47,0.00,,,0.00,meteohub,2013-09-03 06:02:00,
2013-09-03 09:11:00,74.5,51.1,30.23,SW,225,0.0,1.0,44,0.00,,,0.00,meteohub,2013-09-03 06:11:00,
2013-09-03 09:17:00,76.1,52.0,30.23,SSW,202,2.0,2.0,43,0.00,,,0.00,meteohub,2013-09-03 06:17:00,
2013-09-03 09:23:00,77.5,52.0,30.23,SW,225,0.0,2.0,41,0.00,,,0.00,meteohub,2013-09-03 06:23:00,
2013-09-03 09:29:00,78.6,50.2,30.23,SW,225,0.0,2.0,37,0.00,,,0.00,meteohub,2013-09-03 06:29:00,
2013-09-03 09:35:00,79.7,49.8,30.23,SW,225,0.0,2.0,35,0.00,,,0.00,meteohub,2013-09-03 06:35:00,
2013-09-03 09:41:00,80.8,49.1,30.23,SW,225,0.0,2.0,33,0.00,,,0.00,meteohub,2013-09-03 06:41:00,
2013-09-03 09:48:00,81.7,49.8,30.23,South,180,0.0,2.0,33,0.00,,,0.00,meteohub,2013-09-03 06:48:00,
2013-09-03 09:54:00,81.9,49.3,30.23,East,90,0.0,2.0,32,0.00,,,0.00,meteohub,2013-09-03 06:54:00,
2013-09-03 10:00:00,81.5,47.3,30.23,NE,45,1.0,2.0,30,0.00,,,0.00,meteohub,2013-09-03 07:00:00,
2013-09-03 10:06:00,80.6,46.4,30.23,NE,45,3.0,5.0,30,0.00,,,0.00,meteohub,2013-09-03 07:06:00,
2013-09-03 10:12:00,80.2,46.9,30.23,SW,225,0.0,6.0,31,0.00,,,0.00,meteohub,2013-09-03 07:12:00,
2013-09-03 10:18:00,80.1,46.9,30.23,NE,45,1.0,6.0,31,0.00,,,0.00,meteohub,2013-09-03 07:18:00,
2013-09-03 10:24:00,79.9,46.8,30.23,NE,45,2.0,6.0,31,0.00,,,0.00,meteohub,2013-09-03 07:24:00,
2013-09-03 10:30:00,79.0,45.9,30.23,SW,225,3.0,4.0,31,0.00,,,0.00,meteohub,2013-09-03 07:30:00,
2013-09-03 10:36:00,78.1,46.0,30.23,NE,45,0.0,3.0,32,0.00,,,0.00,meteohub,2013-09-03 07:36:00,
2013-09-03 10:42:00,77.5,45.5,30.23,NE,45,1.0,4.0,32,0.00,,,0.00,meteohub,2013-09-03 07:42:00,
2013-09-03 10:47:00,77.2,45.1,30.23,SW,225,2.0,6.0,32,0.00,,,0.00,meteohub,2013-09-03 07:47:00,
2013-09-03 10:53:00,77.2,45.1,30.23,North,0,2.0,6.0,32,0.00,,,0.00,meteohub,2013-09-03 07:53:00,
2013-09-03 10:59:00,76.8,44.1,30.23,NE,45,3.0,6.0,31,0.00,,,0.00,meteohub,2013-09-03 07:59:00,
2013-09-03 11:05:00,76.8,45.0,30.23,North,0,0.0,5.0,32,0.00,,,0.00,meteohub,2013-09-03 08:05:00,
2013-09-03 11:11:00,76.8,45.0,30.23,SW,225,1.0,5.0,32,0.00,,,0.00,meteohub,2013-09-03 08:11:00,
2013-09-03 11:17:00,77.0,45.0,30.23,NE,45,1.0,3.0,32,0.00,,,0.00,meteohub,2013-09-03 08:17:00,
2013-09-03 11:23:00,76.8,44.1,30.23,SSW,202,2.0,6.0,31,0.00,,,0.00,meteohub,2013-09-03 08:23:00,
2013-09-03 11:29:00,76.6,44.8,30.23,North,0,0.0,6.0,32,0.00,,,0.00,meteohub,2013-09-03 08:29:00,
2013-09-03 11:35:00,76.6,44.8,30.23,NE,45,2.0,4.0,32,0.00,,,0.00,meteohub,2013-09-03 08:35:00,
2013-09-03 11:41:00,76.8,45.0,30.23,East,90,2.0,4.0,32,0.00,,,0.00,meteohub,2013-09-03 08:41:00,
2013-09-03 11:48:00,76.8,45.0,30.23,SSW,202,1.0,4.0,32,0.00,,,0.00,meteohub,2013-09-03 08:48:00,
2013-09-03 11:54:00,76.8,44.1,30.23,SW,225,5.0,5.0,31,0.00,,,0.00,meteohub,2013-09-03 08:54:00,
2013-09-03 12:00:00,76.8,44.1,30.23,South,180,0.0,5.0,31,0.00,,,0.00,meteohub,2013-09-03 09:00:00,
2013-09-03 12:06:00,76.8,47.3,30.23,South,180,0.0,5.0,35,0.00,,,0.00,meteohub,2013-09-03 09:06:00,
2013-09-03 12:12:00,76.5,49.1,30.23,SSE,158,0.0,4.0,38,0.00,,,0.00,meteohub,2013-09-03 09:12:00,
2013-09-03 12:18:00,76.6,49.8,30.23,SSW,202,1.0,4.0,39,0.00,,,0.00,meteohub,2013-09-03 09:18:00,
2013-09-03 12:24:00,77.0,50.2,30.23,SW,225,2.0,3.0,39,0.00,,,0.00,meteohub,2013-09-03 09:24:00,
2013-09-03 12:30:00,77.0,50.9,30.23,SW,225,4.0,4.0,40,0.00,,,0.00,meteohub,2013-09-03 09:30:00,
2013-09-03 12:36:00,77.0,50.9,30.23,SW,225,1.0,5.0,40,0.00,,,0.00,meteohub,2013-09-03 09:36:00,
2013-09-03 12:42:00,77.2,50.9,30.20,East,90,0.0,5.0,40,0.00,,,0.00,meteohub,2013-09-03 09:42:00,
2013-09-03 12:47:00,77.2,50.9,30.20,SW,225,0.0,5.0,40,0.00,,,0.00,meteohub,2013-09-03 09:47:00,
2013-09-03 12:53:00,77.2,51.6,30.20,SSW,202,4.0,4.0,41,0.00,,,0.00,meteohub,2013-09-03 09:53:00,
2013-09-03 12:59:00,77.0,52.2,30.20,SSW,202,2.0,4.0,42,0.00,,,0.00,meteohub,2013-09-03 09:59:00,
2013-09-03 13:05:00,77.0,52.2,30.20,SW,225,4.0,6.0,42,0.00,,,0.00,meteohub,2013-09-03 10:05:00,
2013-09-03 13:11:00,76.8,52.0,30.20,South,180,2.0,6.0,42,0.00,,,0.00,meteohub,2013-09-03 10:11:00,
2013-09-03 13:17:00,77.0,52.2,30.20,South,180,3.0,6.0,42,0.00,,,0.00,meteohub,2013-09-03 10:17:00,
2013-09-03 13:23:00,77.0,52.2,30.20,South,180,3.0,6.0,42,0.00,,,0.00,meteohub,2013-09-03 10:23:00,
2013-09-03 13:29:00,76.6,52.5,30.20,South,180,3.0,6.0,43,0.00,,,0.00,meteohub,2013-09-03 10:29:00,
2013-09-03 13:35:00,76.6,52.5,30.20,NW,315,1.0,6.0,43,0.00,,,0.00,meteohub,2013-09-03 10:35:00,
2013-09-03 13:41:00,76.8,52.7,30.20,SSW,202,3.0,6.0,43,0.00,,,0.00,meteohub,2013-09-03 10:41:00,
2013-09-03 13:47:00,76.8,52.0,30.20,SSW,202,4.0,6.0,42,0.00,,,0.00,meteohub,2013-09-03 10:47:00,
2013-09-03 13:54:00,76.8,52.0,30.20,SW,225,3.0,5.0,42,0.00,,,0.00,meteohub,2013-09-03 10:54:00,
2013-09-03 14:00:00,76.8,52.0,30.20,South,180,2.0,6.0,42,0.00,,,0.00,meteohub,2013-09-03 11:00:00,
2013-09-03 14:06:00,77.0,51.4,30.20,South,180,1.0,6.0,41,0.00,,,0.00,meteohub,2013-09-03 11:06:00,
2013-09-03 14:12:00,76.6,51.8,30.20,SSW,202,2.0,6.0,42,0.00,,,0.00,meteohub,2013-09-03 11:12:00,
2013-09-03 14:18:00,76.8,51.3,30.20,SW,225,3.0,6.0,41,0.00,,,0.00,meteohub,2013-09-03 11:18:00,
2013-09-03 14:24:00,76.8,51.3,30.20,South,180,4.0,6.0,41,0.00,,,0.00,meteohub,2013-09-03 11:24:00,
2013-09-03 14:30:00,76.8,51.3,30.17,SSW,202,1.0,6.0,41,0.00,,,0.00,meteohub,2013-09-03 11:30:00,
2013-09-03 14:36:00,77.0,51.4,30.17,South,180,3.0,7.0,41,0.00,,,0.00,meteohub,2013-09-03 11:36:00,
2013-09-03 14:42:00,77.0,50.9,30.17,South,180,4.0,7.0,40,0.00,,,0.00,meteohub,2013-09-03 11:42:00,
2013-09-03 14:48:00,77.0,50.9,30.17,South,180,4.0,5.0,40,0.00,,,0.00,meteohub,2013-09-03 11:48:00,
2013-09-03 14:54:00,77.2,49.8,30.17,SW,225,1.0,5.0,38,0.00,,,0.00,meteohub,2013-09-03 11:54:00,
2013-09-03 15:00:00,77.4,49.8,30.17,South,180,2.0,5.0,38,0.00,,,0.00,meteohub,2013-09-03 12:00:00,
2013-09-03 15:06:00,78.3,50.5,30.17,South,180,2.0,4.0,38,0.00,,,0.00,meteohub,2013-09-03 12:06:00,
2013-09-03 15:12:00,79.0,50.5,30.14,SW,225,3.0,3.0,37,0.00,,,0.00,meteohub,2013-09-03 12:12:00,
2013-09-03 15:17:00,79.5,48.9,30.14,SW,225,5.0,5.0,34,0.00,,,0.00,meteohub,2013-09-03 12:17:00,
2013-09-03 15:23:00,79.9,49.8,30.14,SW,225,3.0,5.0,35,0.00,,,0.00,meteohub,2013-09-03 12:23:00,
2013-09-03 15:29:00,80.4,48.9,30.14,SW,225,2.0,5.0,33,0.00,,,0.00,meteohub,2013-09-03 12:29:00,
2013-09-03 15:35:00,81.0,49.3,30.14,South,180,2.0,5.0,33,0.00,,,0.00,meteohub,2013-09-03 12:35:00,
2013-09-03 15:41:00,82.4,49.8,30.14,South,180,1.0,5.0,32,0.00,,,0.00,meteohub,2013-09-03 12:41:00,
2013-09-03 15:47:00,84.0,50.2,30.14,South,180,1.0,5.0,31,0.00,,,0.00,meteohub,2013-09-03 12:47:00,
2013-09-03 15:53:00,85.6,51.4,30.14,SW,225,2.0,3.0,31,0.00,,,0.00,meteohub,2013-09-03 12:53:00,
2013-09-03 16:00:00,86.5,50.7,30.14,South,180,2.0,2.0,29,0.00,,,0.00,meteohub,2013-09-03 13:00:00,
2013-09-03 16:06:00,86.5,48.9,30.14,South,180,4.0,6.0,27,0.00,,,0.00,meteohub,2013-09-03 13:06:00,
2013-09-03 16:12:00,86.0,47.5,30.14,SW,225,3.0,6.0,26,0.00,,,0.00,meteohub,2013-09-03 13:12:00,
2013-09-03 16:18:00,86.5,46.8,30.14,SW,225,4.0,6.0,25,0.00,,,0.00,meteohub,2013-09-03 13:18:00,
2013-09-03 16:24:00,86.4,47.7,30.14,South,180,1.0,6.0,26,0.00,,,0.00,meteohub,2013-09-03 13:24:00,
2013-09-03 16:30:00,86.5,47.8,30.14,South,180,3.0,6.0,26,0.00,,,0.00,meteohub,2013-09-03 13:30:00,
2013-09-03 16:36:00,86.7,46.9,30.14,SW,225,3.0,6.0,25,0.00,,,0.00,meteohub,2013-09-03 13:36:00,
2013-09-03 16:42:00,86.4,44.4,30.11,SW,225,1.0,4.0,23,0.00,,,0.00,meteohub,2013-09-03 13:42:00,
2013-09-03 16:48:00,86.2,45.5,30.11,SSW,202,2.0,4.0,24,0.00,,,0.00,meteohub,2013-09-03 13:48:00,
2013-09-03 16:54:00,86.5,45.7,30.11,SW,225,4.0,4.0,24,0.00,,,0.00,meteohub,2013-09-03 13:54:00,
2013-09-03 17:00:00,85.8,45.1,30.11,SW,225,1.0,4.0,24,0.00,,,0.00,meteohub,2013-09-03 14:00:00,
2013-09-03 17:06:00,85.5,44.8,30.11,South,180,2.0,4.0,24,0.00,,,0.00,meteohub,2013-09-03 14:06:00,
2013-09-03 17:12:00,84.7,45.1,30.11,South,180,2.0,4.0,25,0.00,,,0.00,meteohub,2013-09-03 14:12:00,
2013-09-03 17:17:00,83.8,45.5,30.11,South,180,2.0,4.0,26,0.00,,,0.00,meteohub,2013-09-03 14:17:00,
2013-09-03 17:23:00,83.7,47.3,30.11,SSW,202,2.0,4.0,28,0.00,,,0.00,meteohub,2013-09-03 14:23:00,
2013-09-03 17:29:00,83.5,47.1,30.11,South,180,2.0,4.0,28,0.00,,,0.00,meteohub,2013-09-03 14:29:00,
2013-09-03 17:35:00,83.1,46.8,30.11,SW,225,1.0,4.0,28,0.00,,,0.00,meteohub,2013-09-03 14:35:00,
2013-09-03 17:41:00,82.2,46.9,30.11,SW,225,1.0,4.0,29,0.00,,,0.00,meteohub,2013-09-03 14:41:00,
2013-09-03 17:47:00,82.0,46.8,30.11,SW,225,2.0,4.0,29,0.00,,,0.00,meteohub,2013-09-03 14:47:00,
2013-09-03 17:53:00,82.0,46.8,30.11,SSW,202,0.0,4.0,29,0.00,,,0.00,meteohub,2013-09-03 14:53:00,
2013-09-03 17:59:00,82.4,45.1,30.11,SW,225,2.0,3.0,27,0.00,,,0.00,meteohub,2013-09-03 14:59:00,
2013-09-03 18:05:00,82.0,43.9,30.11,South,180,1.0,4.0,26,0.00,,,0.00,meteohub,2013-09-03 15:05:00,
2013-09-03 18:12:00,81.1,46.0,30.11,SW,225,2.0,4.0,29,0.00,,,0.00,meteohub,2013-09-03 15:12:00,
2013-09-03 18:18:00,80.6,45.5,30.11,SSW,202,0.0,4.0,29,0.00,,,0.00,meteohub,2013-09-03 15:18:00,
2013-09-03 18:24:00,80.2,46.2,30.11,SW,225,0.0,3.0,30,0.00,,,0.00,meteohub,2013-09-03 15:24:00,
2013-09-03 18:30:00,79.9,46.8,30.11,South,180,1.0,3.0,31,0.00,,,0.00,meteohub,2013-09-03 15:30:00,
2013-09-03 18:36:00,79.3,46.2,30.11,South,180,0.0,3.0,31,0.00,,,0.00,meteohub,2013-09-03 15:36:00,
2013-09-03 18:42:00,79.2,46.0,30.11,SW,225,2.0,3.0,31,0.00,,,0.00,meteohub,2013-09-03 15:42:00,
2013-09-03 18:48:00,79.0,45.9,30.11,SW,225,0.0,3.0,31,0.00,,,0.00,meteohub,2013-09-03 15:48:00,
2013-09-03 18:54:00,78.6,44.8,30.11,SSW,202,0.0,3.0,30,0.00,,,0.00,meteohub,2013-09-03 15:54:00,
2013-09-03 19:00:00,78.4,45.5,30.11,SW,225,1.0,2.0,31,0.00,,,0.00,meteohub,2013-09-03 16:00:00,
2013-09-03 19:06:00,78.3,45.3,30.11,SW,225,0.0,2.0,31,0.00,,,0.00,meteohub,2013-09-03 16:06:00,
2013-09-03 19:12:00,78.1,44.2,30.11,SW,225,0.0,2.0,30,0.00,,,0.00,meteohub,2013-09-03 16:12:00,
2013-09-03 19:17:00,78.1,44.2,30.11,SW,225,0.0,3.0,30,0.00,,,0.00,meteohub,2013-09-03 16:17:00,
2013-09-03 19:23:00,77.9,44.1,30.11,SW,225,0.0,3.0,30,0.00,,,0.00,meteohub,2013-09-03 16:23:00,
2013-09-03 19:29:00,77.7,44.1,30.11,SW,225,0.0,2.0,30,0.00,,,0.00,meteohub,2013-09-03 16:29:00,
2013-09-03 19:35:00,77.5,43.9,30.11,SSW,202,0.0,1.0,30,0.00,,,0.00,meteohub,2013-09-03 16:35:00,
2013-09-03 19:41:00,77.4,43.7,30.11,SW,225,0.0,1.0,30,0.00,,,0.00,meteohub,2013-09-03 16:41:00,
2013-09-03 19:47:00,77.2,43.5,30.11,SW,225,0.0,1.0,30,0.00,,,0.00,meteohub,2013-09-03 16:47:00,
2013-09-03 19:53:00,77.0,43.3,30.11,SW,225,0.0,0.0,30,0.00,,,0.00,meteohub,2013-09-03 16:53:00,
2013-09-03 19:59:00,77.0,43.3,30.11,SW,225,0.0,0.0,30,0.00,,,0.00,meteohub,2013-09-03 16:59:00,
2013-09-03 20:05:00,76.8,43.2,30.11,SW,225,0.0,0.0,30,0.00,,,0.00,meteohub,2013-09-03 17:05:00,
2013-09-03 20:11:00,76.6,43.9,30.11,SW,225,0.0,0.0,31,0.00,,,0.00,meteohub,2013-09-03 17:11:00,
2013-09-03 20:17:00,76.6,43.9,30.11,SW,225,0.0,0.0,31,0.00,,,0.00,meteohub,2013-09-03 17:17:00,
2013-09-03 20:23:00,76.6,43.9,30.11,SW,225,0.0,0.0,31,0.00,,,0.00,meteohub,2013-09-03 17:23:00,
2013-09-03 20:29:00,76.5,44.6,30.11,SW,225,0.0,0.0,32,0.00,,,0.00,meteohub,2013-09-03 17:29:00,
2013-09-03 20:36:00,76.5,44.6,30.11,SW,225,0.0,0.0,32,0.00,,,0.00,meteohub,2013-09-03 17:36:00,
2013-09-03 20:42:00,76.5,44.6,30.11,North,-999,-999.0,0.0,32,0.00,,,0.00,meteohub,2013-09-03 17:42:00,
2013-09-03 20:48:00,76.5,43.7,30.11,North,-999,-999.0,0.0,31,0.00,,,0.00,meteohub,2013-09-03 17:48:00,
2013-09-03 20:54:00,76.3,43.5,30.11,SW,225,0.0,-999.0,31,0.00,,,0.00,meteohub,2013-09-03 17:54:00,
2013-09-03 21:00:00,76.3,43.5,30.11,SW,225,0.0,0.0,31,0.00,,,0.00,meteohub,2013-09-03 18:00:00,
2013-09-03 21:06:00,76.1,43.3,30.11,SW,225,0.0,0.0,31,0.00,,,0.00,meteohub,2013-09-03 18:06:00,
2013-09-03 21:12:00,76.1,43.3,30.11,SW,225,0.0,0.0,31,0.00,,,0.00,meteohub,2013-09-03 18:12:00,
2013-09-03 21:17:00,75.9,43.3,30.11,SW,225,0.0,0.0,31,0.00,,,0.00,meteohub,2013-09-03 18:17:00,
2013-09-03 21:22:00,75.9,43.3,30.11,SW,225,0.0,0.0,31,0.00,,,0.00,meteohub,2013-09-03 18:22:00,
2013-09-03 21:27:00,75.9,43.3,30.11,SW,225,0.0,0.0,31,0.00,,,0.00,meteohub,2013-09-03 18:27:00,
2013-09-03 21:33:00,75.7,43.2,30.11,NE,45,2.0,0.0,31,0.00,,,0.00,meteohub,2013-09-03 18:33:00,
2013-09-03 21:39:00,75.4,43.7,30.11,NE,45,0.0,2.0,32,0.00,,,0.00,meteohub,2013-09-03 18:39:00,
2013-09-03 21:45:00,75.4,43.7,30.11,North,0,1.0,3.0,32,0.00,,,0.00,meteohub,2013-09-03 18:45:00,
2013-09-03 21:51:00,75.2,43.5,30.11,North,0,0.0,3.0,32,0.00,,,0.00,meteohub,2013-09-03 18:51:00,
2013-09-03 21:58:00,75.2,43.5,30.14,North,0,0.0,1.0,32,0.00,,,0.00,meteohub,2013-09-03 18:58:00,
2013-09-03 22:04:00,74.8,43.2,30.14,North,0,0.0,1.0,32,0.00,,,0.00,meteohub,2013-09-03 19:04:00,
2013-09-03 22:10:00,74.7,43.0,30.11,North,0,2.0,2.0,32,0.00,,,0.00,meteohub,2013-09-03 19:10:00,
2013-09-03 22:16:00,74.3,42.6,30.11,NE,45,1.0,3.0,32,0.00,,,0.00,meteohub,2013-09-03 19:16:00,
2013-09-03 22:22:00,74.1,42.6,30.11,NE,45,0.0,3.0,32,0.00,,,0.00,meteohub,2013-09-03 19:22:00,
2013-09-03 22:28:00,73.9,42.4,30.11,North,0,2.0,3.0,32,0.00,,,0.00,meteohub,2013-09-03 19:28:00,
2013-09-03 22:34:00,73.6,42.1,30.11,North,0,1.0,3.0,32,0.00,,,0.00,meteohub,2013-09-03 19:34:00,
2013-09-03 22:40:00,73.4,41.9,30.11,North,0,0.0,4.0,32,0.00,,,0.00,meteohub,2013-09-03 19:40:00,
2013-09-03 22:46:00,73.2,41.7,30.11,North,0,0.0,4.0,32,0.00,,,0.00,meteohub,2013-09-03 19:46:00,
2013-09-03 22:52:00,73.2,41.7,30.11,NNW,338,0.0,4.0,32,0.00,,,0.00,meteohub,2013-09-03 19:52:00,
2013-09-03 22:57:00,73.2,41.7,30.11,East,90,2.0,2.0,32,0.00,,,0.00,meteohub,2013-09-03 19:57:00,
2013-09-03 23:03:00,73.8,42.3,30.11,North,0,1.0,2.0,32,0.00,,,0.00,meteohub,2013-09-03 20:03:00,
2013-09-03 23:09:00,73.9,42.4,30.11,NNW,338,0.0,3.0,32,0.00,,,0.00,meteohub,2013-09-03 20:09:00,
2013-09-03 23:15:00,74.3,42.6,30.11,NE,45,0.0,3.0,32,0.00,,,0.00,meteohub,2013-09-03 20:15:00,
2013-09-03 23:21:00,74.1,41.7,30.11,NE,45,2.0,3.0,31,0.00,,,0.00,meteohub,2013-09-03 20:21:00,
2013-09-03 23:27:00,74.1,41.7,30.14,NE,45,1.0,3.0,31,0.00,,,0.00,meteohub,2013-09-03 20:27:00,
2013-09-03 23:33:00,73.9,41.5,30.14,SW,225,0.0,4.0,31,0.00,,,0.00,meteohub,2013-09-03 20:33:00,
2013-09-03 23:39:00,73.6,42.1,30.14,North,0,0.0,4.0,32,0.00,,,0.00,meteohub,2013-09-03 20:39:00,
2013-09-03 23:45:00,73.8,42.3,30.14,North,0,2.0,3.0,32,0.00,,,0.00,meteohub,2013-09-03 20:45:00,
2013-09-03 23:51:00,74.1,42.6,30.14,North,0,1.0,3.0,32,0.00,,,0.00,meteohub,2013-09-03 20:51:00,
2013-09-03 23:57:00,74.1,42.6,30.14,NW,315,0.0,3.0,32,0.00,,,0.00,meteohub,2013-09-03 20:57:00,